STARLINK-32423

Last updated on Fri Oct 04 2024 00:02:04 GMT+0000 (Coordinated Universal Time)

1 61218U 24171U 24277.58334491 -.01377257 00000+0 -11444-1 0 9990 2 61218 53.1606 231.8578 0001030 126.3690 160.6762 15.72367537 3283
UTC large
Height (km)
Speed (km/s)
/
Latitude / Longitude
Inclination (degrees)
Orbital Period (minutes)
Azimuth
Elevation
Range (km)
Doppler Factor

Next 0 passes for location: London (51.5072 / 0.1276)

Sorry there are no passes over London.